Погода в Наташкуане

Канада     50°08′00″N   61°47′59″W
темп.,
°C
ветер,
м/с
пор.,
м/с
влажн.,
%
обл.,
%
осадки,
мм/ч
давл.,
гПа
погр.,
м
23 октября, сб
сб2323:00+7в81582100 0.3 1010503
02:00+7всв71384100 0.3 1010408
05:00+6св4878100 0.0 1011363
08:00+6св4777100 0.1 1012332
11:00+7св5582100 0.0 1013306
14:00+8св3381100 0.0 1013393
17:00+7св3484100 0.0 1013249
20:00+6всв3586100 0.0 1012229
24 октября, вс
вс2423:00+6всв4688100 0.0 1011229
02:00+6св5888100 0.0 1008297
05:00+5св4988100 0.0 1006347
08:00+6ссв51184100 0.2 1004456
11:00+8ссв61180100 0.6 1002591
14:00+9с61175100 0.9 1001811
17:00+8с71276100 0.0 1003724
20:00+8с91466100 0.0 1004858
25 октября, пн
пн2523:00+5с8156098 0.0 1007612
02:00+3ссз510641 0.0 1010356
05:00+2ссз497017 0.0 1012238
08:00+2ссз3872100 0.0 1015370
11:00+6сз345597 0.0 10151020
14:00+8зсз455344 0.0 10141314
17:00+6ссз576370 0.0 1015402
20:00+3сз47745 0.0 1016134
26 октября, вт
вт2623:00+3зсз47740 0.0 1015108
02:00+2сз48780 0.0 1016148
05:000сз49782 0.0 1016177
08:00+1сз48700 0.0 1017231
11:00+7сз46480 0.0 1017721
14:00+10сз454495 0.0 10171031
17:00+7сз22624 0.0 101715
20:00+5с34745 0.0 102044
27 октября, ср
ср2723:00+3ссз35815 0.0 102173
02:00+2с45840 0.0 102079
05:00+1с47860 0.0 1021117
08:00+2с37830 0.0 1021188
11:00+8ссв56530 0.0 1020657
14:00+10ссв46420 0.0 1018825
17:00+6с46550 0.0 101877
20:00+4с49650 0.0 1018156